Location: Fort Wayne
(41.1310°N, 85.1290°W)
Time: 01:37:31
(UTC-04:00)

COSMOS 2406 - Visible Passes

Search period start: 31 October 2014 00:00
Search period end: 09 November 2014 23:00
Orbit: 846 x 863 km, 71.0° (Epoch: 30 October)

Date Brightness Start Highest point End Pass type
(mag) Time Alt. Az. Time Alt. Az. Time Alt. Az.
31 Oct 5.8 05:58:20 10° N 06:01:45 16° NE 06:05:10 10° E visible
31 Oct 3.3 07:41:10 10° NNW 07:46:52 86° WSW 07:52:32 10° SSE visible
01 Nov 5.8 05:47:09 10° N 05:50:38 16° NE 05:54:05 10° E visible
01 Nov 3.2 07:30:01 10° NNW 07:35:42 85° WSW 07:41:22 10° SSE visible
02 Nov 5.7 04:35:58 10° N 04:39:30 17° NE 04:43:01 10° E visible
02 Nov 3.2 06:18:52 10° NNW 06:24:33 83° WSW 06:30:13 10° SSE visible
02 Nov 5.0 19:29:05 10° SSE 19:30:15 15° SSE 19:30:15 15° SSE visible
03 Nov 5.7 04:24:46 10° N 04:28:21 17° NE 04:31:56 10° E visible
03 Nov 3.2 06:07:43 10° NNW 06:13:24 82° WSW 06:19:04 10° SSE visible
03 Nov 4.4 19:17:53 10° SSE 19:20:48 24° SE 19:20:48 24° SE visible
03 Nov 5.5 21:01:38 10° SW 21:02:59 17° WSW 21:02:59 17° WSW visible
04 Nov 5.7 04:13:35 10° N 04:17:13 17° NE 04:20:51 10° E visible
04 Nov 3.1 05:56:34 10° NNW 06:02:15 80° WSW 06:07:54 10° SSE visible
04 Nov 3.9 19:06:42 10° SSE 19:11:18 31° ESE 19:11:18 31° ESE visible
04 Nov 5.0 20:50:31 10° SW 20:53:28 27° WSW 20:53:28 27° WSW visible
05 Nov 5.6 04:02:34 11° N 04:06:05 17° NE 04:09:46 10° E visible
05 Nov 3.1 05:45:25 10° NNW 05:51:06 79° WSW 05:56:45 10° SSE visible
05 Nov 3.9 18:55:30 10° SSE 19:00:27 31° ESE 19:01:42 29° E visible
05 Nov 4.5 20:39:23 10° SW 20:43:52 36° WNW 20:43:52 36° WNW visible
06 Nov 5.6 03:52:43 14° NNE 03:54:57 18° NE 03:58:41 10° E visible
06 Nov 3.1 05:34:53 13° NNW 05:39:56 78° WSW 05:45:35 10° SSE visible
06 Nov 3.9 18:44:19 10° SSE 18:49:17 32° ESE 18:51:59 21° ENE visible
06 Nov 4.5 20:28:16 10° SW 20:33:29 37° WNW 20:34:08 36° NW visible
07 Nov 5.5 03:43:00 18° NE 03:43:49 18° NE 03:47:35 10° E visible
07 Nov 3.1 05:25:11 23° NNW 05:28:47 76° WSW 05:34:26 10° SSE visible
07 Nov 3.9 18:33:07 10° SSE 18:38:07 33° ESE 18:42:06 15° NE visible
07 Nov 4.5 20:17:08 10° SW 20:22:20 36° WNW 20:24:15 29° NNW visible
08 Nov 5.6 03:33:25 18° ENE 03:33:25 18° ENE 03:36:30 10° E visible
08 Nov 3.0 05:15:35 41° NW 05:17:37 75° WSW 05:23:16 10° SSE visible
08 Nov 3.9 18:21:56 10° SSE 18:26:57 33° ESE 18:31:58 10° NE visible
08 Nov 4.6 20:06:01 10° SW 20:11:11 36° WNW 20:14:13 21° N visible
09 Nov 5.8 03:23:54 15° E 03:23:54 15° E 03:25:24 10° E visible
09 Nov 3.0 05:06:05 70° WNW 05:06:28 73° WSW 05:12:06 10° SSE visible
09 Nov 3.9 18:10:44 10° SSE 18:15:47 34° ESE 18:20:50 10° NE visible
09 Nov 4.6 19:54:53 10° WSW 20:00:02 35° WNW 20:04:02 16° N visible
